TimeMST,TemperatureF,Dew PointF,Humidity,Sea Level PressureIn,VisibilityMPH,Wind Direction,Wind SpeedMPH,Gust SpeedMPH,PrecipitationIn,Events,Conditions,WindDirDegrees,DateUTC
12:53 AM,28.0,23.0,81,30.17,10.0,SE,5.8,-,N/A,,Partly Cloudy,140,2012-11-14 07:53:00
1:53 AM,25.0,21.9,88,30.17,10.0,SSE,6.9,-,N/A,,Clear,160,2012-11-14 08:53:00
2:53 AM,26.1,21.9,84,30.17,10.0,SSE,6.9,-,N/A,,Clear,150,2012-11-14 09:53:00
3:53 AM,26.1,21.9,84,30.15,10.0,SSE,6.9,-,N/A,,Clear,150,2012-11-14 10:53:00
4:53 AM,26.1,21.9,84,30.14,10.0,SE,10.4,-,N/A,,Clear,140,2012-11-14 11:53:00
5:53 AM,25.0,21.0,85,30.14,10.0,SSE,8.1,-,N/A,,Clear,160,2012-11-14 12:53:00
6:53 AM,24.1,21.0,88,30.15,10.0,SSE,6.9,-,N/A,,Clear,160,2012-11-14 13:53:00
7:53 AM,24.1,21.0,88,30.16,10.0,SSE,6.9,-,N/A,,Clear,160,2012-11-14 14:53:00
8:53 AM,26.1,21.9,84,30.16,10.0,SSE,6.9,-,N/A,,Clear,160,2012-11-14 15:53:00
9:53 AM,32.0,25.0,75,30.15,10.0,South,4.6,-,N/A,,Clear,170,2012-11-14 16:53:00
10:53 AM,34.0,26.1,73,30.14,10.0,SSE,6.9,-,N/A,,Clear,160,2012-11-14 17:53:00
11:53 AM,36.0,27.0,70,30.12,10.0,South,4.6,-,N/A,,Partly Cloudy,170,2012-11-14 18:53:00
12:53 PM,36.0,28.0,73,30.11,10.0,South,6.9,-,N/A,,Clear,180,2012-11-14 19:53:00
1:53 PM,41.0,30.0,65,30.10,10.0,South,4.6,-,N/A,,Clear,170,2012-11-14 20:53:00
2:53 PM,39.9,30.9,70,30.11,10.0,WSW,3.5,-,N/A,,Partly Cloudy,250,2012-11-14 21:53:00
3:53 PM,39.9,30.9,70,30.12,10.0,SW,4.6,-,N/A,,Clear,220,2012-11-14 22:53:00
4:53 PM,39.9,30.0,68,30.13,10.0,Calm,Calm,-,N/A,,Partly Cloudy,0,2012-11-14 23:53:00
5:53 PM,37.0,30.0,76,30.16,10.0,Calm,Calm,-,N/A,,Overcast,0,2012-11-15 00:53:00
6:53 PM,37.0,30.0,76,30.19,10.0,WNW,6.9,-,N/A,,Overcast,300,2012-11-15 01:53:00
7:53 PM,36.0,30.9,82,30.22,10.0,WNW,5.8,-,N/A,,Overcast,290,2012-11-15 02:53:00
8:53 PM,35.1,28.9,78,30.23,10.0,WNW,8.1,-,N/A,,Overcast,290,2012-11-15 03:53:00
9:53 PM,32.0,27.0,82,30.25,10.0,WNW,8.1,-,N/A,,Clear,290,2012-11-15 04:53:00
10:53 PM,30.0,26.1,85,30.29,10.0,Calm,Calm,-,N/A,,Partly Cloudy,0,2012-11-15 05:53:00
11:53 PM,33.1,27.0,78,30.30,10.0,Calm,Calm,-,N/A,,Partly Cloudy,0,2012-11-15 06:53:00